Weather History for Chicopee, MA

Change the Weather History Date:

Thursday, April 3, 2014

  Actual Average Record
Temperature  
Mean Temperature 40 °F -  
Max Temperature 57 °F 49 °F 69 °F (2002)
Min Temperature 23 °F 31 °F 21 °F (2001)
Degree Days  
Heating Degree Days 25    
Moisture  
Dew Point 27 °F    
Average Humidity 68    
Maximum Humidity 100    
Minimum Humidity 27    
Precipitation  
Precipitation 0.00 in - - ()
Sea Level Pressure  
Sea Level Pressure 30.10 in    
Wind  
Wind Speed 4 mph (North)    
Max Wind Speed 12 mph    
Max Gust Speed 17 mph    
Visibility 8 miles    
Events      
Averages and records for this station are not official NWS values.
T = Trace of Precipitation, MM = Missing Value Source: NWS Daily Summary

Daily Weather History Graph

Daily Weather History Graph

Search for Another Location

Airport:

Trip Planner

Search our weather history database for the weather conditions in past years. The results will help you decide how hot, cold, wet, or windy it might be!

Date:

Astronomy

Apr. 03, 2014 Rise Set
Actual Time 6:29 AM EDT 7:18 PM EDT
Civil Twilight 6:01 AM EDT 7:46 PM EDT
Nautical Twilight 5:27 AM EDT 8:20 PM EDT
Astronomical Twilight 4:52 AM EDT 8:55 PM EDT
Moon 8:52 AM EDT (4/3) 11:38 PM EDT (4/3)
Length of Visible Light 13h 45m
Length of Day
12h 48m
Waxing Crescent, 17% of the Moon is Illuminated
Apr 3
Waxing Crescent
Apr 7
First Quarter
Apr 15
Full
Apr 22
Last Quarter
Apr 29
New

Hourly Weather History & Observations

Time (EDT) Temp. Windchill Dew Point Humidity Pressure Visibility Wind Dir Wind Speed Gust Speed Precip Events Conditions
12:58 AM 32.4 °F - 32.0 °F 99% 30.11 in 10.0 mi SE 2.3 mph - N/A   Clear
1:46 AM 30.2 °F 26.7 °F 30.2 °F 100% 30.08 in 2.5 mi NNE 3.5 mph - N/A   Clear
1:47 AM 30.2 °F 26.7 °F 30.2 °F 100% 30.08 in 1.8 mi Variable 3.5 mph - N/A   Clear
1:48 AM 30.2 °F - 28.4 °F 93% 30.08 in 1.5 mi NE 2.3 mph - N/A   Clear
1:52 AM 30.2 °F - 30.2 °F 100% 30.08 in 1.8 mi WSW 2.3 mph - N/A   Clear
1:55 AM 32.0 °F - 32.0 °F 100% 30.08 in 2.0 mi Variable 2.3 mph - N/A   Clear
1:56 AM 32.0 °F - 32.0 °F 100% 30.08 in 3.0 mi West 2.3 mph - N/A   Clear
1:58 AM 30.9 °F 25.2 °F 30.6 °F 99% 30.11 in 7.0 mi WNW 5.8 mph - N/A   Clear
2:58 AM 34.5 °F 31.6 °F 31.3 °F 88% 30.10 in 10.0 mi ENE 3.5 mph - N/A   Clear
3:58 AM 33.6 °F - 28.4 °F 81% 30.10 in 10.0 mi Calm Calm - N/A   Clear
4:58 AM 25.3 °F - 24.8 °F 98% 30.11 in 10.0 mi Calm Calm - N/A   Clear
5:58 AM 23.9 °F - 23.7 °F 99% 30.12 in 10.0 mi East 2.3 mph - N/A   Clear
6:58 AM 26.1 °F - 25.9 °F 99% 30.13 in 10.0 mi Calm Calm - N/A   Clear
7:58 AM 32.9 °F - 32.4 °F 98% 30.14 in 10.0 mi Calm Calm - N/A   Clear
8:58 AM 42.4 °F 39.6 °F 26.8 °F 54% 30.14 in 10.0 mi NNW 4.6 mph - N/A   Clear
9:58 AM 45.0 °F 42.6 °F 23.5 °F 43% 30.14 in 10.0 mi SW 4.6 mph - N/A   Clear
10:58 AM 49.1 °F - 21.9 °F 34% 30.14 in 10.0 mi Variable 4.6 mph - N/A   Clear
11:58 AM 51.4 °F - 21.7 °F 31% 30.12 in 10.0 mi North 10.4 mph - 0.00 in   Clear
12:58 PM 53.2 °F - 21.0 °F 28% 30.09 in 10.0 mi North 11.5 mph - N/A   Clear
1:58 PM 56.1 °F - 21.9 °F 27% 30.07 in 10.0 mi North 11.5 mph 17.3 mph N/A   Clear
2:58 PM 56.5 °F - 22.3 °F 27% 30.06 in 10.0 mi North 11.5 mph - N/A   Scattered Clouds
3:58 PM 57.4 °F - 23.0 °F 27% 30.06 in 10.0 mi North 11.5 mph - N/A   Mostly Cloudy
4:58 PM 55.6 °F - 23.4 °F 29% 30.06 in 10.0 mi North 10.4 mph - N/A   Clear
5:58 PM 53.8 °F - 23.4 °F 31% 30.06 in 10.0 mi North 8.1 mph - N/A   Clear
6:58 PM 51.1 °F - 24.1 °F 35% 30.06 in 10.0 mi North 5.8 mph - N/A   Clear
7:58 PM 47.8 °F - 23.7 °F 39% 30.08 in 10.0 mi North 3.5 mph - N/A   Clear
8:58 PM 37.2 °F - 27.9 °F 69% 30.08 in 10.0 mi East 2.3 mph - N/A   Clear
9:58 PM 35.4 °F 30.5 °F 30.6 °F 82% 30.11 in 10.0 mi NE 5.8 mph - N/A   Partly Cloudy
11:58 PM 40.3 °F - 24.8 °F 54% 30.13 in 10.0 mi Variable 2.3 mph - N/A   Clear